Showing default

GUANGCHUAN 01, 62111

Orbit data source: Space-Track

GUANGCHUAN 01, 62111 is a payload satellite owned by Hongqing Keji (CN) in LEO that was launched on Wed, 27 Nov 2024 UTC via a ZHUQUE-2E launch vehicle from the Jiuquan Satellite Launch Center, China (JSC). Payload-class satellites include a variety of spacecraft equipped with specific instruments for various scientific and technological missions. These include communications satellites like Starlink; space stations such as the ISS; scientific satellites like the Hubble; Earth observation satellites from companies like Planet Labs, Umbra, and HawkEye 360; GPS; miniature CubeSats for education and research; and military/defense satellites.

Loading next visibility...
Identifier
62111, 2024-221A
Orbit
LEO
Country
Flag of CNCN / PRC
Related business
Manufacturer
CAST?
Mission
Operational Commercial Communications
Bus & Motor
HQ, Unknown motor
Mass
~500 kg wet, ~500 kg dry
Launch date (UTC)
2024-11-27 (1 year ago)
Launch vehicle
ZHUQUE-2E
Launch site
Jiuquan Satellite Launch Center, China (JSC)
Object type
Payload
Rocket body
Debris
Shape & HBR
Box + 2 Pan, 3.0 m
Radar Cross Section
4.560 m², Large (>1 m²)

Expand to show TLE details & history
Last TLE update: 15 hours ago

TLE from 15 hours ago
0 GUANGCHUAN 01
1 62111U 24221A   25347.00887679  .00007902  00000-0  42288-3 0  9993
2 62111  49.9448 349.4832 0007176 273.4606  86.5525 15.15832311 57950
Epoch: 2025-12-13T00:12Z
TLE epoch observation values (Epoch: 2025-12-13T00:12:46.954Z)
Latitude
0.00003°
Longitude
-95.65472°
Altitude
518.705 km
Speed
7.606 km/s
True Right ascension
23h 17m 55s
True Declination
0° 00' 00"
Sunlit
Object was in daylight at epoch
Visualization orbit readout
Latitude
Unknown
Longitude
Unknown
Altitude
Unknown
Speed
Unknown
Apparent Right ascension
Unknown
Apparent Declination
Unknown
Sunlit
N/A
Visualization observer readout
Local Sidereal Time
13:39:05
Azimuth
Unknown
Elevation
Unknown
Doppler factor
Unknown
Orbital elements
Apogee altitude
524.181 km
Perigee altitude
514.282 km
Semi-major axis
6,897.368 km
Eccentricity
0.00072
Inclination
49.9448°
RAAN
349.4832°
Arg. of periapsis
273.4606°
True anomaly
86.63459°
Mean anomaly
86.5525°
Eccentric anomaly
86.59354°
Mean motion
3.78894 °/min
Orbital period
95.01 mins
BSTAR
0.00042288
Loading maneuver chart data...
Computing Atmospheric mass density...
Loading historical data...
Loading historical data...
Loading historical data...
Loading historical data...
Loading historical data...
Loading historical data...
Loading historical data...
Other satellites on launch #221 in the year 2024 (2024-11-27 UTC)

Documentation

Showing up to 5 results
|